Redmond, OR

8:36 PM PST on January 17, 2018 (GMT -0800)
Roberts Field Airport

Weather History for KRDM - March, 2013

Change the Weather History Date:

Tuesday, March 19, 2013

  Actual Average Record
Temperature  
Mean Temperature 37 °F 40 °F  
Max Temperature 49 °F 55 °F 77 °F (1960)
Min Temperature 25 °F 26 °F 9 °F (2012)
Degree Days  
Heating Degree Days 28 24  
Month to date heating degree days 478 495  
Since 1 July heating degree days 4945 5168  
Cooling Degree Days 0 0  
Month to date cooling degree days 0 0  
Year to date cooling degree days 0 0  
Moisture  
Dew Point 24 °F    
Average Humidity 64    
Maximum Humidity 92    
Minimum Humidity 36    
Precipitation  
Precipitation 0.03 in 0.02 in 0.42 in (1953)
Month to date precipitation 0.11 0.39  
Year to date precipitation 0.53 2.01  
Sea Level Pressure  
Sea Level Pressure 30.02 in    
Wind  
Wind Speed 3 mph (NNW)    
Max Wind Speed 14 mph    
Max Gust Speed 18 mph    
Visibility 10 miles    
Events Rain    
T = Trace of Precipitation, MM = Missing Value Source: NWS Daily Summary

Daily Weather History Graph

Daily Weather History Graph

Search for Another Location

Airport or City:

Trip Planner

Search our weather history database for the weather conditions in past years. The results will help you decide how hot, cold, wet, or windy it might be!

Date:

Astronomy

Mar. 19, 2013 Rise Set
Actual Time 7:08 AM PDT 7:16 PM PDT
Civil Twilight 6:40 AM PDT 7:45 PM PDT
Nautical Twilight 6:06 AM PDT 8:19 PM PDT
Astronomical Twilight 5:31 AM PDT 8:53 PM PDT
Moon 11:51 AM PDT (3/19) 2:19 AM PDT (3/19)
Length of Visible Light 13h 05m
Length of Day
12h 07m
Waxing Crescent, 51% of the Moon is Illuminated
Mar 19
Waxing Crescent
Mar 27
Full
Apr 2
Last Quarter
Apr 10
New
Apr 18
First Quarter

Hourly Weather History & Observations

Time (PDT) Temp. Windchill Dew Point Humidity Pressure Visibility Wind Dir Wind Speed Gust Speed Precip Events Conditions
12:56 AM 24.1 °F 17.0 °F 17.1 °F 75% 30.17 in 10.0 mi South 5.8 mph - N/A   Clear
1:56 AM 27.0 °F 21.6 °F 17.1 °F 66% 30.16 in 10.0 mi SSE 4.6 mph - N/A   Clear
2:56 AM 26.1 °F 21.9 °F 16.0 °F 66% 30.15 in 10.0 mi South 3.5 mph - N/A   Mostly Cloudy
3:56 AM 26.1 °F - 16.0 °F 66% 30.13 in 10.0 mi Calm Calm - N/A   Partly Cloudy
4:56 AM 27.0 °F - 16.0 °F 63% 30.13 in 10.0 mi Calm Calm - N/A   Mostly Cloudy
5:56 AM 27.0 °F - 16.0 °F 63% 30.13 in 10.0 mi Calm Calm - N/A   Overcast
6:56 AM 26.1 °F - 16.0 °F 66% 30.13 in 10.0 mi Calm Calm - N/A   Overcast
7:56 AM 28.9 °F - 17.1 °F 61% 30.14 in 10.0 mi Calm Calm - N/A   Overcast
8:56 AM 33.1 °F - 21.0 °F 61% 30.14 in 10.0 mi Calm Calm - N/A   Overcast
9:56 AM 36.0 °F - 23.0 °F 59% 30.15 in 10.0 mi Calm Calm - N/A   Overcast
10:56 AM 37.9 °F - 23.0 °F 55% 30.13 in 10.0 mi Calm Calm - N/A   Overcast
11:56 AM 42.1 °F - 21.9 °F 45% 30.09 in 10.0 mi Calm Calm - N/A   Overcast
12:56 PM 46.9 °F - 21.0 °F 36% 30.06 in 10.0 mi North 3.5 mph - N/A   Mostly Cloudy
1:56 PM 48.0 °F - 23.0 °F 37% 30.02 in 10.0 mi NW 6.9 mph - N/A   Overcast
2:56 PM 48.0 °F - 23.0 °F 37% 29.99 in 10.0 mi NW 8.1 mph - N/A   Overcast
3:56 PM 48.0 °F - 25.0 °F 41% 29.95 in 10.0 mi NNW 9.2 mph - N/A   Overcast
4:56 PM 46.0 °F 41.9 °F 25.0 °F 44% 29.91 in 10.0 mi NNW 8.1 mph - N/A   Overcast
5:56 PM 45.0 °F 40.6 °F 24.1 °F 44% 29.92 in 10.0 mi WNW 8.1 mph - N/A   Overcast
6:56 PM 41.0 °F 39.0 °F 33.1 °F 73% 29.89 in 10.0 mi East 3.5 mph - 0.00 in Rain Light Rain
7:56 PM 39.9 °F - 34.0 °F 79% 29.87 in 9.0 mi Calm Calm - 0.02 in Rain Light Rain
8:56 PM 39.0 °F 36.8 °F 35.1 °F 86% 29.84 in 10.0 mi NE 3.5 mph - 0.01 in   Overcast
9:56 PM 39.9 °F 37.8 °F 37.0 °F 89% 29.81 in 10.0 mi NE 3.5 mph - N/A   Overcast
10:56 PM 39.9 °F - 37.0 °F 89% 29.78 in 10.0 mi Calm Calm - 0.00 in   Mostly Cloudy
11:56 PM 45.0 °F 43.5 °F 39.9 °F 82% 29.76 in 10.0 mi SW 3.5 mph - N/A   Overcast